Torna al catalogo

STARLINK-5706

AttivoComunicazioniVLEO
NORAD 55488·PAYLOAD·🇺🇸 United States

Lanciato Feb 2, 2023 da Cape Canaveral Space Force Station

Loading…

Prossimi Passaggi (prossime 24 ore)

TLE

AggiornatoSource: CelesTrak SupGP

Epoca: Sep 15, 2026, 01:35 UTC

1 55488C 23015AR  26258.06645833 -.00009072  00000+0 -32863-3 0  2581
2 55488  43.0037 350.2259 0001659 281.0387 236.2871 15.27578594    18

Traccia STARLINK-5706 in tempo reale con AllMySat

Download on the App Store